Location: Starlight Observatory
(38.4029°N, 85.8936°W)
Time: 01:37:06
(UTC-04:00)

Amateur Radio Satellites - All Passes

Search period start: 27 April 2015 01:07
Search period end: 28 April 2015 01:07
Location: Starlight Observatory, 38.4029°N, 85.8936°W

Satellite Date Start Highest point End Downlink Frequencies (MHz)
Time Altitude Azimuth
RS-15 27 Apr 01:08:13 01:19:46 72° 244° (WSW) 01:31:45 29.354- 29.394
BUGSAT 1 27 Apr 01:08:14 01:12:25 89° 102° (ESE) 01:16:37 437.445
CUBEBUG 1 27 Apr 01:15:26 01:18:51 22° 266° (W) 01:22:11 437.445
VELOX 1 27 Apr 01:16:27 01:17:43 11° 271° (W) 01:18:41 145.980
DUCHIFAT 1 27 Apr 01:20:24 01:24:31 46° 287° (WNW) 01:28:37 145.980
POLYITAN 1 27 Apr 01:21:03 01:25:09 44° 287° (WNW) 01:29:15 437.675
Cosmos 2504 27 Apr 01:26:07 01:34:01 61° 78° (ENE) 01:41:22 435.465 / 435.565
Cosmos 2491 27 Apr 01:26:12 01:33:33 28° 292° (WNW) 01:40:41 435.465 / 435.565
BEESAT 27 Apr 01:31:23 01:34:34 19° 66° (ENE) 01:37:55 436.000
SWISSCUBE 27 Apr 01:33:46 01:37:17 21° 67° (ENE) 01:40:55 437.505
QB50P1 27 Apr 01:39:07 01:42:50 28° 289° (WNW) 01:46:29 145.935-145.965
AIST 1 27 Apr 01:44:15 01:48:33 82° 277° (W) 01:52:51
ANTELSAT 27 Apr 01:49:40 01:52:03 13° 295° (WNW) 01:54:11 437.575/2403.000
TISAT 1 27 Apr 01:54:18 01:58:11 37° 262° (W) 02:02:05 437.305
Oscar 19 27 Apr 01:58:21 02:00:39 13° 89° (E) 02:03:15 437.125/150
QB50P2 27 Apr 02:06:46 02:09:17 15° 293° (WNW) 02:11:37 145.880/145.840
SPROUT 27 Apr 02:32:40 02:34:27 12° 271° (W) 02:35:58 437.525
ITUPSAT 1 27 Apr 02:37:18 02:42:07 86° 72° (ENE) 02:46:56 437.325
KKS-1 27 Apr 02:41:40 02:44:25 17° 67° (ENE) 02:47:19 437.445
JUGNU 27 Apr 02:47:32 02:49:35 12° 177° (S) 02:51:41 437.505
BEESAT 3 27 Apr 02:52:40 02:56:22 35° 115° (ESE) 03:00:10 437.485
BEESAT 2 27 Apr 02:55:58 02:59:36 32° 114° (ESE) 03:03:19 435.950
BEESAT 27 Apr 03:07:32 03:12:06 45° 261° (W) 03:16:42 436.000
SWISSCUBE 27 Apr 03:10:27 03:14:55 38° 262° (W) 03:19:22 437.505
Gurwin Techsat 1B 27 Apr 03:12:52 03:16:30 19° 91° (E) 03:20:19 435.225
Cosmos 2504 27 Apr 03:20:49 03:26:46 23° 277° (W) 03:32:09 435.465 / 435.565
RS-15 27 Apr 03:24:44 03:30:42 14° 260° (W) 03:35:35 29.354- 29.394
STARS 27 Apr 03:31:27 03:35:24 35° 72° (ENE) 03:39:27 437.465
Oscar 19 27 Apr 03:35:23 03:40:35 67° 286° (WNW) 03:45:43 437.125/150
CUSAT 1 27 Apr 03:55:45 04:02:07 28° 69° (ENE) 04:09:07 437.405
GONETS M04 27 Apr 04:02:54 04:11:12 44° 74° (ENE) 04:19:33
AIST 2 27 Apr 04:04:44 04:08:54 57° 117° (ESE) 04:13:08 435.215
AO-7 27 Apr 04:09:55 04:13:18 13° 87° (E) 04:17:22 29.400- 29.500
ITAMSAT 1 27 Apr 04:13:10 04:18:23 84° 106° (ESE) 04:23:35 435.822/435.867
KKS-1 27 Apr 04:16:32 04:20:45 43° 262° (W) 04:24:59 437.445
BEESAT 3 27 Apr 04:31:20 04:34:31 21° 312° (NW) 04:37:39 437.485
BEESAT 2 27 Apr 04:34:25 04:37:46 23° 311° (NW) 04:41:06 435.950
JUGNU 27 Apr 04:36:16 04:37:45 11° 187° (S) 04:39:11 437.505
DANDE 27 Apr 04:43:54 04:51:14 48° 75° (ENE) 04:59:29 436.750
JAS-2 27 Apr 04:45:05 04:49:30 21° 89° (E) 04:53:47 435.910
SRMSAT 27 Apr 04:48:02 04:50:11 12° 178° (S) 04:52:20 437.500
Gurwin Techsat 1B 27 Apr 04:51:41 04:56:49 49° 288° (WNW) 05:01:54 435.225
MOZHAYETS 4 27 Apr 04:54:13 04:58:10 29° 70° (ENE) 05:02:12
HORYU 2 27 Apr 04:54:19 04:58:27 36° 97° (E) 05:02:35 437.375
STARS 27 Apr 05:08:51 05:12:01 19° 267° (W) 05:15:04 437.465
CUSAT 1 27 Apr 05:37:35 05:45:20 65° 264° (W) 05:53:32 437.405
Cosmos 2499 27 Apr 05:43:30 05:50:00 30° 69° (ENE) 05:56:18 435.465 / 435.565
AIST 2 27 Apr 05:45:08 05:47:53 16° 316° (NW) 05:50:31 435.215
ITAMSAT 1 27 Apr 05:55:17 05:57:16 12° 298° (WNW) 05:58:56 435.822/435.867
AO-7 27 Apr 05:59:10 06:07:32 79° 106° (ESE) 06:15:54 29.400- 29.500
AUBIESAT-1 27 Apr 05:59:53 06:03:10 19° 62° (ENE) 06:06:34 437.475
GONETS M04 27 Apr 05:59:58 06:07:59 39° 273° (W) 06:15:48
DANDE 27 Apr 06:27:22 06:34:27 38° 269° (W) 06:42:00 436.750
JAS-2 27 Apr 06:29:07 06:35:08 49° 290° (WNW) 06:40:27 435.910
PRISM 27 Apr 06:29:43 06:31:29 13° 66° (ENE) 06:33:28 437.425
MOZHAYETS 4 27 Apr 06:31:28 06:35:23 26° 266° (W) 06:39:13
HORYU 2 27 Apr 06:31:33 06:34:53 20° 292° (WNW) 06:38:05 437.375
CUBESAT XI-V 27 Apr 06:35:13 06:39:00 26° 70° (ENE) 06:42:53 437.345
SRMSAT 27 Apr 06:38:04 06:38:29 10° 188° (S) 06:38:49 437.500
M-CUBED/EXP-1 PRIME 27 Apr 06:51:52 06:56:39 70° 71° (ENE) 07:01:29 437.505
CUTE-I 27 Apr 07:14:53 07:19:11 26° 94° (E) 07:23:37 437.470
STRAND 1 27 Apr 07:18:57 07:23:37 39° 71° (ENE) 07:28:22 437.568
CUSAT 1 27 Apr 07:24:32 07:27:10 11° 278° (W) 07:29:08 437.405
Cubesat XI-IV 27 Apr 07:24:43 07:29:26 32° 96° (E) 07:34:12 437.490
AUBIESAT-1 27 Apr 07:32:57 07:37:36 50° 257° (WSW) 07:42:15 437.475
Cosmos 2499 27 Apr 07:36:12 07:43:29 47° 270° (W) 07:50:14 435.465 / 435.565
AO-7 27 Apr 07:53:20 07:59:34 23° 304° (WNW) 08:05:32 29.400- 29.500
PRISM 27 Apr 08:02:31 08:06:35 51° 260° (W) 08:10:39 437.425
CUBESAT XI-V 27 Apr 08:12:23 08:16:24 28° 265° (W) 08:20:21 437.345
M-CUBED/EXP-1 PRIME 27 Apr 08:29:53 08:31:59 12° 267° (W) 08:33:50 437.505
PCSat 27 Apr 08:42:19 08:47:34 56° 114° (ESE) 08:52:54 145.827
CUTE-I 27 Apr 08:54:30 08:59:23 37° 290° (WNW) 09:04:13 437.470
STRAND 1 27 Apr 08:58:56 09:02:59 23° 266° (W) 09:06:55 437.568
Cubesat XI-IV 27 Apr 09:04:52 09:09:30 30° 292° (WNW) 09:14:01 437.490
O/OREOS (USA 219) 27 Apr 09:08:45 09:13:16 88° 250° (WSW) 09:17:43 437.305
GOMX 1 27 Apr 09:37:19 09:42:00 33° 96° (E) 09:46:56 467.674
Cosmos 2491 27 Apr 09:40:20 09:47:26 27° 68° (ENE) 09:54:49 435.465 / 435.565
SEEDS 27 Apr 09:40:43 09:43:25 17° 91° (E) 09:46:14 437.485
HO-68 27 Apr 09:45:32 09:51:54 34° 96° (E) 09:58:21 435.675
CANX-2 27 Apr 09:51:15 09:55:00 30° 96° (E) 09:58:47 2200.000
AAUSAT CUBESAT 2 27 Apr 09:53:47 09:56:20 16° 91° (E) 09:59:02 437.432
BRITE-PL 27 Apr 09:58:09 10:03:21 80° 101° (E) 10:08:55 437.365/2234.400
CUTE 1.7 + AOD 2 27 Apr 10:00:01 10:03:54 34° 96° (E) 10:07:48 437.475
DOVE 4 27 Apr 10:05:29 10:10:23 42° 97° (E) 10:15:26 437.250
TIGRISAT 27 Apr 10:23:23 10:25:49 15° 65° (ENE) 10:28:29 435.000
CUBEBUG 2 27 Apr 10:25:57 10:28:59 17° 90° (E) 10:32:11 437.445
PCSat 27 Apr 10:27:13 10:31:24 22° 312° (NW) 10:35:29 145.827
UNISAT 6 27 Apr 10:28:01 10:30:53 17° 66° (ENE) 10:33:57 437.425
CINEMA 3 27 Apr 10:37:09 10:41:56 44° 98° (E) 10:46:45 145.822/145.860
YUBILEINY 27 Apr 10:43:46 10:50:59 31° 85° (E) 10:58:26 435.215
COMPASS 1 27 Apr 10:46:52 10:51:06 83° 102° (ESE) 10:55:17 437.405
UWE-3 27 Apr 10:47:52 10:51:35 24° 93° (E) 10:55:22 435.000/436.395/437.385
DELFI C3 27 Apr 10:52:28 10:55:48 25° 95° (E) 10:59:09 145.870
FUNcube-1 27 Apr 10:52:58 10:56:19 20° 92° (E) 10:59:46 145.935
QB50P1 27 Apr 10:56:07 10:58:24 15° 67° (ENE) 11:00:52 145.935-145.965
UKube-1 27 Apr 10:57:27 10:58:22 11° 89° (E) 10:59:36 .
HUMSAT D 27 Apr 11:01:52 11:02:47 11° 88° (E) 11:03:57 437.325/437.525
ANTELSAT 27 Apr 11:08:28 11:12:47 45° 73° (ENE) 11:17:14 437.575/2403.000
BEESAT 3 27 Apr 11:13:28 11:16:04 16° 45° (NE) 11:18:45 437.485
Oscar 11 27 Apr 11:13:32 11:17:52 63° 101° (E) 11:22:09 145.826/435.025
SEEDS 27 Apr 11:15:29 11:19:24 36° 288° (WNW) 11:23:14 437.485
GOMX 1 27 Apr 11:15:32 11:20:02 29° 290° (WNW) 11:24:37 467.674
BEESAT 2 27 Apr 11:17:18 11:19:43 15° 44° (NE) 11:22:16 435.950
ZACube-1 27 Apr 11:18:23 11:22:42 39° 97° (E) 11:27:00 437.345
QB50P2 27 Apr 11:21:23 11:24:59 29° 71° (ENE) 11:28:41 145.880/145.840
CANX-2 27 Apr 11:27:31 11:30:48 21° 291° (WNW) 11:33:56 2200.000
AAUSAT CUBESAT 2 27 Apr 11:28:17 11:32:09 36° 287° (WNW) 11:35:58 437.432
VELOX 1 27 Apr 11:30:10 11:32:07 13° 90° (E) 11:34:18 145.980
50 SAT 27 Apr 11:32:10 11:34:12 14° 91° (E) 11:36:24 437.505
HO-68 27 Apr 11:33:01 11:39:44 43° 293° (WNW) 11:46:21 435.675
ISS 27 Apr 11:34:57 11:37:47 28° 134° (SE) 11:40:39 145.825
Cosmos 2491 27 Apr 11:36:18 11:45:01 62° 268° (W) 11:53:37 435.465 / 435.565
CUTE 1.7 + AOD 2 27 Apr 11:36:34 11:39:37 19° 291° (WNW) 11:42:32 437.475
NANOSAT C BR1 27 Apr 11:37:51 11:41:48 43° 73° (ENE) 11:45:50 145.865
BRITE-PL 27 Apr 11:38:57 11:41:24 13° 295° (WNW) 11:43:36 437.365/2234.400
POPSAT HIP 1 27 Apr 11:41:48 11:45:50 48° 74° (ENE) 11:49:56 437.405
DOVE 4 27 Apr 11:43:50 11:47:54 23° 291° (WNW) 11:51:56 437.250
SO-50 27 Apr 11:44:44 11:49:04 42° 115° (ESE) 11:53:35 436.795
AISAT 27 Apr 11:47:37 11:51:00 22° 94° (E) 11:54:31 437.250
DX 1 27 Apr 11:50:13 11:54:27 49° 100° (E) 11:58:42 434.975-435.025
AIST 1 27 Apr 11:53:42 11:56:50 20° 73° (ENE) 12:00:05
BUGSAT 1 27 Apr 11:56:56 12:00:47 48° 74° (ENE) 12:04:42 437.445
TIGRISAT 27 Apr 11:57:43 12:02:08 53° 261° (W) 12:06:41 435.000
CUBEBUG 2 27 Apr 12:01:22 12:05:57 46° 287° (WNW) 12:10:28 437.445
UNISAT 6 27 Apr 12:02:58 12:07:19 45° 262° (W) 12:11:47 437.425
DUCHIFAT 1 27 Apr 12:10:58 12:15:10 77° 260° (W) 12:19:23 145.980
POLYITAN 1 27 Apr 12:12:14 12:16:26 71° 258° (WSW) 12:20:42 437.675
CINEMA 3 27 Apr 12:15:07 12:18:50 21° 292° (WNW) 12:22:26 145.822/145.860
UWE-3 27 Apr 12:23:57 12:28:10 32° 289° (WNW) 12:32:17 435.000/436.395/437.385
DELFI C3 27 Apr 12:27:39 12:30:51 22° 290° (WNW) 12:33:56 145.870
AIST 2 27 Apr 12:28:18 12:31:49 25° 49° (NE) 12:35:20 435.215
FUNcube-1 27 Apr 12:28:33 12:32:46 36° 288° (WNW) 12:36:54 145.935
QB50P1 27 Apr 12:29:55 12:33:57 44° 262° (W) 12:38:00 145.935-145.965
UKube-1 27 Apr 12:30:42 12:34:59 59° 286° (WNW) 12:39:14 .
ESTCUBE 1 27 Apr 12:32:23 12:36:30 35° 97° (E) 12:40:38 437.505/2401.250
HUMSAT D 27 Apr 12:34:43 12:39:01 59° 285° (WNW) 12:43:14 437.325/437.525
YUBILEINY 27 Apr 12:38:48 12:47:26 55° 283° (WNW) 12:56:01 435.215
SPROUT 27 Apr 12:45:01 12:45:29 10° 88° (E) 12:46:17 437.525
ANTELSAT 27 Apr 12:46:58 12:49:52 16° 270° (W) 12:52:38 437.575/2403.000
BEESAT 3 27 Apr 12:50:26 12:54:23 48° 243° (WSW) 12:58:15 437.485
Oscar 11 27 Apr 12:52:04 12:53:33 11° 295° (WNW) 12:54:49 145.826/435.025
BEESAT 2 27 Apr 12:54:11 12:58:13 54° 243° (WSW) 13:02:09 435.950
ZACube-1 27 Apr 12:55:27 12:58:48 19° 292° (WNW) 13:01:59 437.345
QB50P2 27 Apr 12:57:38 13:00:56 21° 266° (W) 13:04:09 145.880/145.840
CUBEBUG 1 27 Apr 13:04:31 13:08:55 74° 103° (ESE) 13:13:18 437.445
VELOX 1 27 Apr 13:04:44 13:09:04 52° 286° (WNW) 13:13:23 145.980
50 SAT 27 Apr 13:05:26 13:09:15 40° 287° (WNW) 13:12:59 437.505
ISS 27 Apr 13:11:13 13:14:07 29° 330° (NNW) 13:17:01 145.825
Oscar 19 27 Apr 13:13:33 13:16:52 18° 65° (ENE) 13:20:23 437.125/150
NANOSAT C BR1 27 Apr 13:15:34 13:17:56 14° 269° (W) 13:20:07 145.865
POPSAT HIP 1 27 Apr 13:20:04 13:22:03 13° 270° (W) 13:23:50 437.405
RS-15 27 Apr 13:22:21 13:28:59 20° 102° (ESE) 13:36:23 29.354- 29.394
AISAT 27 Apr 13:23:41 13:27:40 32° 289° (WNW) 13:31:36 437.250
SO-50 27 Apr 13:25:59 13:29:49 24° 314° (NW) 13:33:40 436.795
DX 1 27 Apr 13:27:53 13:30:21 15° 294° (WNW) 13:32:38 434.975-435.025
AIST 1 27 Apr 13:30:50 13:34:33 28° 269° (W) 13:38:12
BUGSAT 1 27 Apr 13:35:11 13:36:38 11° 270° (W) 13:37:50 437.445
TISAT 1 27 Apr 13:40:08 13:44:03 36° 98° (E) 13:48:00 437.305
ITAMSAT 1 27 Apr 13:53:41 13:55:54 13° 63° (ENE) 13:58:24 435.822/435.867
Cosmos 2504 27 Apr 14:00:35 14:09:08 56° 91° (E) 14:17:39 435.465 / 435.565
AIST 2 27 Apr 14:06:42 14:10:26 30° 246° (WSW) 14:14:02 435.215
ESTCUBE 1 27 Apr 14:09:51 14:13:10 20° 292° (WNW) 14:16:22 437.505/2401.250
SPROUT 27 Apr 14:17:46 14:22:04 62° 285° (WNW) 14:26:21 437.525
Gurwin Techsat 1B 27 Apr 14:32:22 14:36:43 27° 68° (ENE) 14:41:10 435.225
ITUPSAT 1 27 Apr 14:40:06 14:43:56 25° 94° (E) 14:47:51 437.325
Oscar 19 27 Apr 14:50:48 14:55:50 54° 260° (W) 15:00:55 437.125/150
JAS-2 27 Apr 14:57:24 15:00:06 13° 57° (ENE) 15:03:16 435.910
AO-7 27 Apr 15:07:15 15:12:38 20° 55° (NE) 15:18:21 29.400- 29.500
BEESAT 27 Apr 15:09:05 15:13:44 51° 100° (E) 15:18:21 436.000
SWISSCUBE 27 Apr 15:11:54 15:16:36 60° 100° (E) 15:21:18 437.505
TISAT 1 27 Apr 15:16:37 15:19:36 18° 292° (WNW) 15:22:28 437.305
RS-15 27 Apr 15:29:07 15:40:02 90° 104° (ESE) 15:51:11 29.354- 29.394
ITAMSAT 1 27 Apr 15:29:41 15:34:51 75° 257° (WSW) 15:40:03 435.822/435.867
HORYU 2 27 Apr 15:51:21 15:55:10 28° 70° (ENE) 15:59:04 437.375
Cosmos 2504 27 Apr 15:55:13 16:03:00 32° 290° (WNW) 16:10:29 435.465 / 435.565
VERMONT LUNAR 27 Apr 16:05:06 16:07:49 23° 150° (SSE) 16:10:34 437.305
KKS-1 27 Apr 16:09:00 16:13:12 39° 98° (E) 16:17:25 437.445
Gurwin Techsat 1B 27 Apr 16:11:42 16:16:34 36° 263° (W) 16:21:25 435.225
ITUPSAT 1 27 Apr 16:17:39 16:21:52 32° 290° (WNW) 16:26:02 437.325
JAS-2 27 Apr 16:36:18 16:44:02 64° 73° (ENE) 16:51:32 435.910
BEESAT 27 Apr 16:48:12 16:51:12 16° 294° (WNW) 16:54:01 436.000
SWISSCUBE 27 Apr 16:51:27 16:54:01 14° 295° (WNW) 16:56:22 437.505
PHONESAT 2.4 27 Apr 16:53:55 16:56:35 20° 148° (SSE) 16:59:20 2401.200-2431.200
AO-7 27 Apr 16:56:12 17:04:30 89° 252° (WSW) 17:12:51 29.400- 29.500
STARS 27 Apr 16:58:28 17:02:57 89° 103° (ESE) 17:07:24 437.465
GONETS M04 27 Apr 17:01:41 17:10:02 53° 90° (E) 17:18:32
CUSAT 1 27 Apr 17:05:11 17:07:08 14° 82° (E) 17:09:34 437.405
HORYU 2 27 Apr 17:28:05 17:31:48 25° 265° (W) 17:35:29 437.375
PCSat 27 Apr 17:31:52 17:36:44 33° 53° (NE) 17:41:38 145.827
VERMONT LUNAR 27 Apr 17:41:40 17:45:02 90° 328° (NNW) 17:48:26 437.305
RS-15 27 Apr 17:44:54 17:54:10 29° 327° (NNW) 18:03:26 29.354- 29.394
KKS-1 27 Apr 17:46:24 17:49:35 19° 293° (WNW) 17:52:38 437.445
DANDE 27 Apr 17:56:43 17:59:51 36° 91° (E) 18:03:57 436.750
ISS 27 Apr 18:03:25 18:06:12 25° 29° (NNE) 18:08:59 145.825
Cosmos 2499 27 Apr 18:17:24 18:24:25 29° 85° (E) 18:31:34 435.465 / 435.565
JAS-2 27 Apr 18:23:05 18:29:30 26° 269° (W) 18:35:32 435.910
MOZHAYETS 4 27 Apr 18:27:11 18:31:48 85° 102° (ESE) 18:36:21
PHONESAT 2.4 27 Apr 18:30:57 18:34:31 80° 165° (SSE) 18:38:07 2401.200-2431.200
CUTE-I 27 Apr 18:35:13 18:40:01 37° 70° (ENE) 18:44:53 437.470
Cubesat XI-IV 27 Apr 18:45:13 18:50:16 46° 71° (ENE) 18:55:22 437.490
CUSAT 1 27 Apr 18:45:43 18:49:12 35° 289° (WNW) 18:53:43 437.405
AO-7 27 Apr 18:53:29 18:58:32 16° 272° (W) 19:03:00 29.400- 29.500
GONETS M04 27 Apr 18:59:34 19:07:18 32° 290° (WNW) 19:14:54
PCSat 27 Apr 19:15:18 19:20:08 33° 250° (WSW) 19:24:52 145.827
AUBIESAT-1 27 Apr 19:18:07 19:19:43 12° 93° (E) 19:21:29 437.475
VERMONT LUNAR 27 Apr 19:19:17 19:22:39 57° 2° (N) 19:25:59 437.305
STRAND 1 27 Apr 19:32:23 19:34:57 14° 90° (E) 19:37:48 437.568
ISS 27 Apr 19:39:36 19:42:37 34° 225° (SW) 19:45:35 145.825
DANDE 27 Apr 19:42:05 19:43:47 12° 300° (WNW) 19:45:27 436.750
PRISM 27 Apr 19:46:56 19:50:10 23° 95° (E) 19:53:29 437.425
RS-15 27 Apr 20:05:22 20:11:54 16° 1° (N) 20:18:35 29.354- 29.394
Cosmos 2499 27 Apr 20:08:23 20:17:09 61° 282° (WNW) 20:25:39 435.465 / 435.565
PHONESAT 2.4 27 Apr 20:09:20 20:12:53 59° 359° (N) 20:16:26 2401.200-2431.200
CUBESAT XI-V 27 Apr 20:09:42 20:14:20 80° 102° (ESE) 20:18:58 437.345
M-CUBED/EXP-1 PRIME 27 Apr 20:10:35 20:14:41 69° 105° (ESE) 20:18:25 437.505
HO-68 27 Apr 20:13:38 20:18:54 23° 61° (ENE) 20:24:24 435.675
CUTE-I 27 Apr 20:15:45 20:20:12 26° 266° (W) 20:24:32 437.470
SO-50 27 Apr 20:17:37 20:21:54 29° 48° (NE) 20:26:13 436.795
Cubesat XI-IV 27 Apr 20:26:40 20:30:39 20° 268° (W) 20:34:28 437.490
SEEDS 27 Apr 20:33:24 20:34:23 11° 65° (ENE) 20:35:36 437.485
CANX-2 27 Apr 20:43:26 20:46:26 19° 69° (ENE) 20:49:36 2200.000
GOMX 1 27 Apr 20:45:11 20:48:35 25° 69° (ENE) 20:52:13 467.674
AAUSAT CUBESAT 2 27 Apr 20:46:02 20:46:06 10° 65° (ENE) 20:46:25 437.432
AUBIESAT-1 27 Apr 20:51:03 20:54:56 42° 292° (WNW) 20:58:28 437.475
CUTE 1.7 + AOD 2 27 Apr 20:51:58 20:55:12 22° 70° (ENE) 20:58:33 437.475
VERMONT LUNAR 27 Apr 20:56:48 21:00:12 75° 198° (SSW) 21:03:34 437.305
YUBILEINY 27 Apr 20:57:20 21:00:29 13° 57° (ENE) 21:04:19 435.215
BRITE-PL 27 Apr 21:08:27 21:12:34 74° 76° (ENE) 21:16:53 437.365/2234.400
STRAND 1 27 Apr 21:09:37 21:14:39 61° 286° (WNW) 21:19:40 437.568
DOVE 4 27 Apr 21:10:26 21:14:11 31° 70° (ENE) 21:18:09 437.250
PRISM 27 Apr 21:22:12 21:25:37 25° 290° (WNW) 21:28:56 437.425
CUBEBUG 2 27 Apr 21:24:28 21:26:00 12° 64° (ENE) 21:27:48 437.445
COMPASS 1 27 Apr 21:36:32 21:40:34 45° 74° (ENE) 21:44:39 437.405
CINEMA 3 27 Apr 21:37:55 21:41:45 31° 71° (ENE) 21:45:48 145.822/145.860
DELFI C3 27 Apr 21:39:52 21:41:56 14° 68° (ENE) 21:44:11 145.870
O/OREOS (USA 219) 27 Apr 21:42:56 21:44:48 13° 100° (E) 21:46:56 437.305
UWE-3 27 Apr 21:44:36 21:47:13 16° 67° (ENE) 21:50:05 435.000/436.395/437.385
PHONESAT 2.4 27 Apr 21:47:39 21:51:15 85° 198° (SSW) 21:54:50 2401.200-2431.200
FUNcube-1 27 Apr 21:48:35 21:50:42 14° 66° (ENE) 21:53:04 145.935
CUBESAT XI-V 27 Apr 21:50:48 21:51:12 10° 296° (WNW) 21:51:20 437.345
SO-50 27 Apr 21:58:00 22:02:32 36° 246° (WSW) 22:06:56 436.795
HO-68 27 Apr 21:58:56 22:06:05 67° 257° (WSW) 22:13:16 435.675
SEEDS 27 Apr 22:05:27 22:09:42 65° 259° (W) 22:13:58 437.485
Oscar 11 27 Apr 22:06:48 22:10:51 40° 73° (ENE) 22:14:58 145.826/435.025
Cosmos 2499 27 Apr 22:10:24 22:12:27 11° 304° (WNW) 22:13:42 435.465 / 435.565
ZACube-1 27 Apr 22:13:18 22:16:52 26° 70° (ENE) 22:20:36 437.345
AAUSAT CUBESAT 2 27 Apr 22:17:00 22:21:13 69° 259° (W) 22:25:26 437.432
CANX-2 27 Apr 22:18:14 22:22:10 34° 264° (W) 22:26:06 2200.000
RS-15 27 Apr 22:19:58 22:29:36 31° 35° (NE) 22:39:50 29.354- 29.394
GOMX 1 27 Apr 22:23:12 22:26:43 25° 266° (W) 22:30:18 467.674
CUTE 1.7 + AOD 2 27 Apr 22:27:09 22:30:59 30° 264° (W) 22:34:46 437.475
VELOX 1 27 Apr 22:28:16 22:28:58 10° 64° (ENE) 22:29:55 145.980
VERMONT LUNAR 27 Apr 22:34:57 22:37:20 18° 212° (SSW) 22:39:38 437.305
Cosmos 2491 27 Apr 22:40:00 22:47:17 33° 86° (E) 22:54:50 435.465 / 435.565
DX 1 27 Apr 22:44:31 22:48:26 35° 71° (ENE) 22:52:25 434.975-435.025
AISAT 27 Apr 22:44:52 22:47:38 17° 67° (ENE) 22:50:34 437.250
DOVE 4 27 Apr 22:48:49 22:52:04 20° 268° (W) 22:55:21 437.250
YUBILEINY 27 Apr 22:50:37 22:59:21 71° 80° (E) 23:08:02 435.215
CUBEBUG 2 27 Apr 22:57:50 23:02:10 64° 260° (W) 23:06:41 437.445
ANTELSAT 27 Apr 23:04:36 23:05:47 11° 88° (E) 23:07:17 437.575/2403.000
DELFI C3 27 Apr 23:12:51 23:16:45 43° 262° (W) 23:20:40 145.870
COMPASS 1 27 Apr 23:14:17 23:16:33 14° 270° (W) 23:18:36 437.405
CINEMA 3 27 Apr 23:15:39 23:19:03 21° 268° (W) 23:22:29 145.822/145.860
UWE-3 27 Apr 23:19:13 23:23:24 45° 262° (W) 23:27:44 435.000/436.395/437.385
O/OREOS (USA 219) 27 Apr 23:19:18 23:23:48 56° 294° (WNW) 23:28:18 437.305
FUNcube-1 27 Apr 23:22:21 23:26:36 53° 261° (W) 23:30:59 145.935
UKube-1 27 Apr 23:23:48 23:28:07 86° 257° (WSW) 23:32:27 .
HUMSAT D 27 Apr 23:24:40 23:28:54 78° 75° (ENE) 23:33:12 437.325/437.525
PHONESAT 2.4 27 Apr 23:26:20 23:29:13 22° 211° (SSW) 23:32:02 2401.200-2431.200
ESTCUBE 1 27 Apr 23:30:51 23:34:40 28° 70° (ENE) 23:38:33 437.505/2401.250
Oscar 11 27 Apr 23:44:26 23:47:15 16° 269° (W) 23:49:56 145.826/435.025
50 SAT 27 Apr 23:48:40 23:52:40 89° 257° (WSW) 23:56:44 437.505
ZACube-1 27 Apr 23:49:29 23:53:11 26° 266° (W) 23:56:55 437.345
TIGRISAT 27 Apr 23:51:07 23:55:26 36° 96° (E) 23:59:43 435.000
UNISAT 6 27 Apr 23:56:26 00:00:54 42° 98° (E) 00:05:18 437.425
Cosmos 2504 27 Apr 23:57:46 00:02:09 16° 61° (ENE) 00:06:49 435.465 / 435.565
DUCHIFAT 1 27 Apr 23:58:07 00:01:08 19° 93° (E) 00:04:15 145.980
CUBEBUG 1 27 Apr 23:59:13 00:03:22 49° 74° (ENE) 00:07:34 437.445
POLYITAN 1 27 Apr 23:59:56 00:03:10 21° 93° (E) 00:06:30 437.675
VELOX 1 28 Apr 00:00:38 00:05:00 71° 258° (WSW) 00:09:25 145.980
QB50P1 28 Apr 00:16:34 00:20:25 31° 97° (E) 00:24:17 145.935-145.965
AISAT 28 Apr 00:19:47 00:23:57 41° 262° (W) 00:28:07 437.250
DX 1 28 Apr 00:21:46 00:24:50 18° 267° (W) 00:27:47 434.975-435.025
AIST 1 28 Apr 00:23:13 00:25:03 13° 87° (E) 00:27:06
TISAT 1 28 Apr 00:31:29 00:34:42 23° 69° (ENE) 00:38:02 437.305
RS-15 28 Apr 00:32:06 00:43:47 89° 239° (WSW) 00:55:55 29.354- 29.394
Cosmos 2491 28 Apr 00:35:24 00:43:51 51° 284° (WNW) 00:52:19 435.465 / 435.565
ANTELSAT 28 Apr 00:38:28 00:43:09 67° 285° (WNW) 00:47:44 437.575/2403.000
QB50P2 28 Apr 00:43:14 00:47:32 68° 101° (E) 00:51:49 145.880/145.840
YUBILEINY 28 Apr 00:49:01 00:55:26 22° 278° (W) 01:01:25 435.215
